星链-31685 (STARLINK-31685 )

导读

STARLINK-31685是美国SpaceX星链星座的卫星,于2024年4月23日8点发射入轨,是星链互联网星座组网进程中的组成单元。星链项目旨在构建全球卫星互联网,该卫星承担为偏远地区等场景提供低延迟宽带接入的任务,依托一箭多星发射模式快速补网,助力推进星座全球覆盖能力的建设。

基本信息
目录编号:
59578
目录名称:
STARLINK-31685
国际标识:
2024-076Q
轨道中心:
EARTH
卫星名称:
星链-31685
卫星全名:
星链-31685 (STARLINK-31685 )
卫星状态:
在轨 (已飞行786 天)
发射日期:
2024-04-23 UTC
国别 :
美国 (US)
星等 :
--
轨道信息
数据来源 国际轨道数据 AOE轨道数据
星历时间 2026-06-16T01:57:40+0800
2天前
查看轨道信息
2026-06-15T06:00:00+0800
3天前
查看轨道信息
半长轴 6861.212km 6861.321km
偏心率 0.0001286 0.0001223
轨道倾角 43.008° 43.005°
近地点辐角 236.145° 243.905°
升交点赤经 174.852° 179.552°
平近点角 123.928° 216.976°
近地点 482.192km 482.344km
远地点 483.958km 484.024km
周期 94.267分钟 94.270分钟
每日圈数 15.275716 15.27535
详细信息
固有亮度:
5
最大亮度:
1.5
卫星平台:
Starlink v2.0 mini
覆盖范围:
全球
运营商:
太空探索技术公司
运营商所在国:
美国
制造商(研发单位):
太空探索技术公司
制造商所在国:
美国
使用方式:
暂无
卫星简介
星链(Starlink)计划是由太空探索技术公司(SpaceX)提出的一个巨型低轨卫星互联网星座项目,计划在2019年至2024年间在太空搭建由约1.2万颗卫星组成的“星链”网络,其中1584颗将部署在地球上空550千米处的近地轨道,并从2020年开始工作。该卫星仍在工作。
2D轨道图
3D轨道图
轨道高度分析图
轨道倾角分析图
轨道综合分析图
查看轨道综合分析图